📊 Raw Sensor Data

Showing records 39951 to 39975 of 84,954 total

ID Distance (ft) Battery V Battery A Int Temp (°F) Int Humid (%) Ext Temp (°F) Solar V RSSI SNR Time Stamp
45016 15.1 3.86 -5 63 45 64 0.10 -66 8 07/01/2025 12:45 AM
45015 15.1 3.84 -5 64 45 65 0.00 -66 7 07/01/2025 12:30 AM
45014 15.1 3.88 -5 64 45 65 0.00 -66 6 07/01/2025 12:15 AM
45013 15.1 3.87 -5 64 46 65 0.00 -66 8 07/01/2025 12:00 AM
45012 15.1 3.86 -5 65 46 65 0.00 -66 8 06/30/2025 11:45 PM
45011 15.1 3.87 -5 65 46 66 0.00 -65 8 06/30/2025 11:30 PM
45010 15.1 3.93 -5 66 46 66 0.10 -67 8 06/30/2025 11:15 PM
45009 15.1 3.94 -5 66 47 67 0.10 -67 8 06/30/2025 11:00 PM
45008 15.1 3.87 -5 66 47 67 0.00 -68 8 06/30/2025 10:45 PM
45007 15.1 3.94 -5 67 47 68 0.00 -67 8 06/30/2025 10:30 PM
45006 15.1 3.87 -5 67 48 68 0.00 -67 8 06/30/2025 10:15 PM
45005 15.1 3.87 -5 68 49 69 0.00 -67 8 06/30/2025 10:00 PM
45004 15.1 3.94 -5 68 51 69 0.10 -68 7 06/30/2025 09:45 PM
45003 15.1 3.88 -5 69 52 69 0.00 -65 8 06/30/2025 09:30 PM
45002 15.1 3.86 -5 71 53 70 0.00 -66 6 06/30/2025 09:15 PM
45001 15.1 3.86 -5 74 55 72 0.00 -72 8 06/30/2025 09:00 PM
45000 15.2 3.79 -5 76 57 73 0.70 -73 8 06/30/2025 08:45 PM
44999 15.2 3.77 -10 82 57 76 3.70 -72 8 06/30/2025 08:30 PM
44998 15.3 3.95 0 88 55 82 4.50 -71 8 06/30/2025 08:15 PM
44997 15.3 3.97 0 92 54 85 4.50 -71 8 06/30/2025 08:00 PM
44996 15.4 3.98 7 94 54 87 4.50 -72 7 06/30/2025 07:45 PM
44995 15.3 3.99 10 98 53 89 4.60 -73 8 06/30/2025 07:30 PM
44994 15.4 4.01 0 100 52 95 4.60 -71 7 06/30/2025 07:15 PM
44993 15.4 3.95 26 101 51 95 4.50 -73 8 06/30/2025 07:00 PM
44992 15.4 4.11 0 102 51 95 5.10 -73 8 06/30/2025 06:45 PM